Date,TemperatureHighF,TemperatureAvgF,TemperatureLowF,DewpointHighF,DewpointAvgF,DewpointLowF,HumidityHigh,HumidityAvg,HumidityLow,PressureMaxIn,PressureMinIn,WindSpeedMaxMPH,WindSpeedAvgMPH,GustSpeedMaxMPH,PrecipitationSumIn
2012-1-1,44.1,35.7,29.1,35.6,27.0,16.4,85,70,55,29.72,29.34,9,3,19,0.12
2012-1-2,30.2,24.2,18.3,21.5,11.2,1.6,80,58,41,30.08,29.72,0,0,5,0.00
2012-1-3,26.4,20.7,16.7,6.9,1.8,-1.6,56,44,33,30.17,29.93,0,0,0,0.00
2012-1-4,38.1,28.6,19.8,21.9,12.1,0.7,72,50,40,29.93,29.70,6,1,10,0.00
2012-1-5,45.5,35.6,25.7,29.9,22.0,17.8,86,60,35,29.81,29.52,9,2,11,0.00
2012-1-6,54.5,45.1,40.8,38.5,33.7,27.8,84,65,51,29.58,29.46,8,3,13,0.00
2012-1-7,42.4,36.8,26.6,35.1,28.1,20.1,91,71,57,30.05,29.52,8,2,13,0.00
2012-1-8,40.8,29.7,19.2,32.7,25.1,19.2,100,85,58,30.20,30.02,8,1,11,0.00
2012-1-9,42.3,35.5,26.8,36.1,31.2,26.8,100,86,58,30.11,29.72,12,4,20,0.00
2012-1-10,49.8,37.7,24.6,40.2,31.3,24.6,100,80,48,29.87,29.67,8,2,10,0.00
2012-1-11,57.4,41.6,29.1,38.2,31.3,27.4,100,70,36,29.67,29.37,5,1,8,0.00
2012-1-12,39.4,32.4,23.5,36.9,30.6,23.5,100,94,71,29.37,29.19,3,0,4,0.12
2012-1-13,28.8,25.3,22.5,28.8,25.3,22.5,100,100,91,29.81,29.19,0,0,3,0.00
2012-1-14,25.9,21.8,16.5,25.9,21.6,16.5,100,99,90,30.02,29.81,0,0,0,0.00
2012-1-15,27.0,18.6,10.4,19.9,15.1,10.4,100,87,64,30.20,29.99,6,2,11,0.00
2012-1-16,47.1,33.5,21.2,40.6,28.3,15.1,100,82,57,29.96,29.58,7,3,13,0.24
2012-1-17,37.9,31.9,22.6,37.9,30.8,12.7,100,96,65,29.93,29.37,8,3,19,0.16
2012-1-18,25.3,21.9,19.8,19.2,14.3,10.2,93,72,61,30.05,29.72,9,4,17,0.00
2012-1-19,27.9,16.9,7.9,27.7,9.4,-3.3,100,73,57,29.96,29.52,10,4,19,0.00
2012-1-20,19.4,13.3,8.6,15.8,6.2,-2.6,100,74,60,30.05,29.90,5,2,8,0.00
2012-1-21,32.5,16.5,6.1,18.1,8.5,4.0,100,73,41,30.11,29.93,5,2,8,0.00
2012-1-22,38.8,25.1,14.9,38.8,23.4,6.3,100,93,68,30.05,29.46,9,3,16,0.04
2012-1-23,46.2,39.7,31.1,46.2,38.7,24.0,100,96,74,29.64,29.22,8,4,20,0.35
2012-1-24,32.2,30.6,29.3,28.6,24.9,23.4,90,79,73,30.14,29.64,5,2,12,0.00
2012-1-25,36.3,31.4,27.5,30.3,26.8,23.2,100,83,65,30.20,29.96,5,1,9,0.00
2012-1-26,36.9,33.9,29.5,36.5,33.6,28.3,100,99,93,29.96,29.43,4,1,8,0.00
2012-1-27,40.6,35.6,33.1,35.4,29.2,22.2,100,79,49,29.78,29.43,7,2,12,0.00
2012-1-28,34.9,31.4,28.9,33.6,25.5,16.6,100,80,60,29.87,29.52,5,1,10,0.00
2012-1-29,31.5,27.3,19.8,28.6,21.6,14.6,100,80,57,30.02,29.72,7,2,13,0.00
2012-1-30,44.6,28.9,12.2,37.6,23.2,12.2,100,81,58,30.02,29.70,9,3,15,0.12
2012-1-31,55.2,49.6,40.8,50.4,41.5,35.5,100,74,54,29.70,29.64,11,5,25,0.00
2012-2-1,49.3,39.0,35.6,48.9,36.2,32.1,100,90,74,29.99,29.67,4,2,10,0.00
2012-2-2,43.5,36.2,29.1,36.9,33.1,29.1,100,90,60,30.23,29.99,4,1,9,0.00
2012-2-3,36.9,35.4,33.4,36.3,33.0,28.6,100,91,75,30.32,30.23,5,1,10,0.00
2012-2-4,48.4,35.8,25.5,31.1,26.4,18.6,99,72,39,30.23,29.99,5,1,8,0.00
2012-2-5,45.5,30.9,20.5,33.2,26.5,20.5,100,86,51,30.11,29.99,5,1,9,0.00
2012-2-6,34.7,33.1,27.3,34.7,32.9,27.3,100,100,94,30.02,29.90,8,2,15,0.00
2012-2-7,34.9,33.3,28.2,34.9,27.6,15.3,100,80,58,30.20,29.96,7,3,10,0.00
2012-2-8,35.8,26.5,17.1,20.4,15.5,11.5,83,64,45,30.20,30.05,5,1,10,0.00
2012-2-9,37.2,29.5,21.2,23.9,19.2,15.8,94,67,44,30.05,29.87,8,3,18,0.00
2012-2-10,34.3,27.2,11.5,34.3,23.8,11.2,100,88,64,29.93,29.67,10,4,17,0.00
2012-2-11,21.9,13.7,1.2,18.1,10.8,0.9,99,89,65,30.08,29.90,6,2,13,0.00
2012-2-12,30.4,25.0,20.1,18.0,15.0,11.9,80,66,58,30.05,29.96,5,2,13,0.00
2012-2-13,35.6,28.5,16.0,20.3,15.2,12.1,91,58,39,29.96,29.75,7,2,11,0.00
2012-2-14,33.8,30.7,27.1,33.6,30.1,18.9,100,98,62,29.84,29.67,6,4,10,0.00
2012-2-15,47.5,37.4,33.4,38.7,33.5,30.7,100,87,55,29.96,29.81,7,4,13,0.04
2012-2-16,40.3,36.2,33.6,37.0,32.1,27.4,100,86,65,29.90,29.78,4,1,10,0.16
2012-2-17,43.2,34.5,28.9,34.5,28.0,17.9,100,80,41,29.96,29.75,7,1,13,0.00
2012-2-18,35.8,30.9,22.5,35.6,22.4,14.0,100,73,46,30.08,29.78,8,2,22,0.00
2012-2-19,39.4,26.5,16.2,22.6,18.1,14.2,100,74,44,30.08,29.99,6,1,10,0.00
2012-2-20,44.8,30.5,15.6,29.8,20.6,15.6,100,71,41,30.17,29.87,6,2,11,0.00
2012-2-21,38.8,36.0,32.7,38.8,31.8,21.7,100,86,60,29.87,29.43,8,3,16,0.00
2012-2-22,45.1,37.5,32.7,36.7,29.9,23.9,100,75,51,29.49,29.25,6,2,13,0.04
2012-2-23,36.9,32.3,22.8,36.7,31.5,22.8,100,97,81,29.46,29.28,6,1,9,0.04
2012-2-24,36.1,32.3,29.8,34.5,31.2,27.5,100,96,73,29.64,29.22,7,4,16,0.08
2012-2-25,32.7,29.1,27.5,30.4,24.1,19.3,100,82,61,30.17,29.64,6,2,14,0.00
2012-2-26,40.5,31.6,19.2,25.6,20.7,16.4,100,66,44,30.20,29.84,9,4,19,0.04
2012-2-27,41.5,34.9,31.3,29.8,23.6,20.1,81,63,49,30.29,29.84,7,3,15,0.04
2012-2-28,45.3,35.1,27.3,29.8,25.5,20.0,100,70,41,30.29,29.87,5,2,12,0.00
2012-2-29,53.8,38.2,33.1,48.4,36.8,30.2,100,96,55,29.87,29.28,5,2,18,0.71
2012-3-1,39.4,36.2,33.3,39.4,34.8,30.4,100,95,75,29.70,29.40,5,1,10,0.20
2012-3-2,41.2,37.4,33.8,41.2,36.5,33.8,100,97,78,29.70,29.02,6,2,20,0.43
2012-3-3,34.9,31.8,26.8,34.9,28.3,22.4,100,88,64,29.61,29.19,6,3,22,0.04
2012-3-4,34.2,26.7,19.9,26.6,21.8,14.4,100,83,61,29.81,29.61,7,2,12,0.04
2012-3-5,30.6,24.9,19.0,18.4,13.2,6.3,84,61,48,30.20,29.78,6,3,11,0.00
2012-3-6,65.7,46.9,29.3,35.9,27.3,18.1,73,49,31,30.17,29.78,12,6,24,0.00
2012-3-7,64.4,60.4,55.0,44.8,36.3,26.2,51,41,32,29.87,29.67,14,8,27,0.00
2012-3-8,63.7,42.1,32.4,58.1,34.2,21.2,100,76,46,29.99,29.58,13,4,35,0.32
2012-3-9,36.7,30.1,20.5,32.3,16.3,8.1,100,57,44,30.37,29.96,7,3,17,0.04
2012-3-10,56.8,38.6,21.2,25.2,18.5,12.0,80,48,25,30.37,30.05,10,5,23,0.00
2012-3-11,63.9,52.6,39.6,28.6,24.7,0.0,52,35,23,30.14,30.02,8,4,15,0.00
2012-3-12,66.0,55.2,48.4,60.9,48.9,28.7,100,82,39,30.02,29.61,10,4,19,0.55
2012-3-13,58.8,51.0,38.7,50.0,37.7,22.1,100,67,28,29.99,29.70,5,2,12,0.00
2012-3-14,81.1,60.7,37.9,53.7,39.8,24.9,80,49,25,29.99,29.90,9,3,19,0.00
2012-3-15,69.4,65.2,55.9,60.4,55.9,50.4,100,73,51,29.93,29.87,6,2,9,0.00
2012-3-16,80.2,60.9,50.2,71.4,57.1,50.2,100,90,46,29.99,29.90,4,1,8,0.00
2012-3-17,80.1,67.9,57.0,63.7,56.4,48.4,100,71,36,30.05,29.99,10,3,17,0.00
2012-3-18,79.3,65.9,55.4,64.8,59.8,51.6,100,83,41,29.99,29.96,6,2,10,0.00
2012-3-19,81.3,69.2,59.4,65.9,62.4,59.4,100,81,49,29.99,29.93,6,2,10,0.00
2012-3-20,86.2,72.5,60.6,64.0,56.7,45.6,100,64,27,30.08,29.96,9,3,19,0.00
2012-3-21,86.9,73.2,60.4,63.3,56.2,48.5,100,60,31,30.11,30.05,8,2,14,0.00
2012-3-22,87.6,71.4,59.0,66.7,59.1,50.5,100,72,31,30.11,30.02,6,2,10,0.00
2012-3-23,66.6,61.3,57.2,66.6,61.3,57.2,100,100,97,30.05,29.78,5,2,12,0.47
2012-3-24,64.4,57.6,52.3,63.3,56.9,52.3,100,98,83,29.84,29.70,5,1,10,0.00
2012-3-25,71.1,57.4,49.1,57.2,50.1,36.4,100,79,48,30.08,29.84,8,2,13,0.00
2012-3-26,51.1,40.2,31.1,36.9,25.0,19.2,83,57,32,30.35,30.08,9,4,15,0.00
2012-3-27,62.8,45.9,33.8,41.1,26.5,18.0,68,48,32,30.29,29.72,11,5,25,0.00
2012-3-28,64.6,55.1,46.0,58.1,43.3,35.0,100,65,46,29.99,29.67,10,4,21,0.04
2012-3-29,52.3,41.9,32.7,37.6,33.2,30.5,100,72,48,30.11,29.99,6,3,11,0.00
2012-3-30,37.0,35.1,33.1,36.9,34.8,33.1,100,99,88,30.05,29.78,6,3,12,0.39
2012-3-31,52.5,39.8,35.2,40.8,37.1,35.2,100,91,61,29.99,29.87,5,2,10,0.00
2012-4-1,59.0,47.7,40.3,51.2,45.0,40.3,100,91,63,29.87,29.72,7,2,11,0.00
2012-4-2,64.8,50.6,39.4,45.4,38.7,34.7,100,67,39,30.05,29.84,5,2,12,0.00
2012-4-3,64.9,52.8,43.2,56.7,46.4,35.4,100,80,61,30.05,29.90,7,3,13,0.67
2012-4-4,65.5,51.2,34.0,49.7,34.0,21.6,100,59,27,30.02,29.96,8,4,13,0.00
2012-4-5,54.9,44.4,35.8,35.5,30.0,23.7,92,59,39,30.23,29.99,7,4,13,0.00
2012-4-6,64.9,43.5,27.0,35.2,29.0,24.9,100,63,26,30.40,30.23,6,2,10,0.00
2012-4-7,67.5,47.8,29.5,41.7,32.2,25.7,100,63,26,30.37,30.17,6,1,12,0.00
2012-4-8,59.4,51.6,42.8,49.8,36.5,25.5,100,62,29,30.26,30.14,7,3,20,0.00
2012-4-9,57.6,47.9,37.4,46.6,32.2,19.9,100,62,29,30.14,29.99,9,3,19,0.00
2012-4-10,41.0,37.7,35.6,38.3,28.4,23.3,100,69,51,30.17,30.02,7,3,15,0.00
2012-4-11,38.1,36.2,32.7,32.1,29.5,28.3,92,77,68,30.35,30.14,3,2,8,0.00
2012-4-12,57.9,42.9,26.4,43.5,31.6,26.4,100,70,34,30.37,30.29,5,1,11,0.00
2012-4-13,66.7,49.3,29.5,44.2,32.4,0.0,100,61,26,30.35,30.17,8,2,14,0.00
2012-4-14,64.6,58.2,50.2,61.5,50.5,32.8,100,77,43,30.17,29.99,6,3,15,0.00
2012-4-15,74.5,65.5,56.8,69.1,62.4,56.8,100,90,70,29.99,29.84,11,4,23,0.83
2012-4-16,68.2,56.0,40.5,68.2,51.3,36.3,100,85,61,30.29,29.67,13,6,30,0.59
2012-4-17,54.5,42.6,33.8,36.9,33.1,22.5,100,73,36,30.49,30.29,6,2,14,0.00
2012-4-18,34.3,33.2,32.0,34.3,33.2,32.0,100,100,100,30.43,30.40,2,0,3,0.00
2012-4-22,57.0,49.4,34.9,33.2,26.7,19.4,78,42,29,29.86,29.77,13,5,21,0.00
2012-4-23,57.9,45.9,34.0,29.6,24.6,16.1,78,47,29,29.83,29.51,14,4,23,0.00
2012-4-24,61.2,49.5,36.3,36.3,26.6,13.7,70,43,27,29.51,29.42,14,3,19,0.00
2012-4-25,63.5,48.9,33.6,51.8,40.7,32.2,100,78,36,29.59,29.48,6,2,8,0.00
2012-4-26,54.9,48.6,37.4,52.7,40.5,18.6,100,77,44,29.92,29.42,13,4,22,0.04
2012-4-27,55.8,42.4,26.8,33.4,26.5,19.2,100,56,31,30.04,29.92,9,3,12,0.00
2012-4-28,48.9,43.7,39.4,41.7,32.2,25.4,92,64,48,30.01,29.89,7,3,13,0.00
2012-4-29,65.1,49.6,29.7,44.7,30.4,24.5,100,56,26,30.10,29.89,7,2,10,0.04
2012-4-30,54.5,49.0,43.2,54.5,48.1,37.6,100,97,66,29.92,29.65,6,1,10,0.43
2012-5-1,69.1,56.1,48.0,58.3,52.2,48.0,100,88,56,29.83,29.68,8,1,10,0.00
2012-5-2,81.1,66.8,53.2,73.2,60.0,53.2,100,82,46,29.74,29.53,11,3,17,0.00
2012-5-3,84.6,74.2,66.7,72.1,67.6,60.5,100,81,54,29.74,29.65,12,3,17,0.00
2012-5-4,78.6,69.0,58.8,74.1,66.8,58.8,100,94,68,29.86,29.71,8,3,13,0.55
2012-5-5,60.4,56.6,52.7,60.4,54.8,45.6,100,94,77,29.92,29.80,7,3,11,0.04
2012-5-6,68.0,58.2,50.5,63.5,53.0,44.0,100,84,60,29.95,29.77,8,2,11,1.06
2012-5-7,58.1,53.0,48.0,58.1,52.9,48.0,100,100,85,29.80,29.68,5,1,8,0.39
2012-5-8,69.1,55.9,44.4,63.1,49.7,42.0,100,84,41,29.71,29.65,7,1,10,0.00
2012-5-9,62.8,53.6,45.0,54.8,46.1,32.4,100,79,43,29.77,29.65,10,2,15,0.00
2012-5-10,66.0,50.7,40.6,45.9,40.0,33.4,100,72,34,29.86,29.74,4,1,10,0.00
2012-5-11,75.9,58.6,36.9,50.6,39.8,0.0,100,59,18,29.98,29.86,6,2,11,0.00
2012-5-12,63.1,59.1,54.1,63.0,54.5,40.9,100,88,48,30.07,29.95,5,2,8,0.00
2012-5-13,76.5,61.6,47.3,56.3,40.0,26.8,100,51,22,30.10,29.98,6,2,11,0.00
2012-5-14,76.8,59.7,39.7,61.2,41.7,33.1,100,61,26,29.98,29.86,4,1,10,0.00
2012-5-15,79.7,63.9,0.0,61.2,47.3,0.0,100,63,26,29.86,29.65,6,2,17,0.08
2012-5-16,66.9,56.0,42.8,58.5,40.0,27.6,100,60,31,29.98,29.77,8,3,18,0.12
2012-5-17,74.1,57.1,38.7,47.5,39.2,0.0,100,60,17,30.04,29.92,4,1,8,0.00
2012-5-18,83.7,65.8,51.3,51.9,42.9,37.5,80,48,24,29.98,29.92,6,2,13,0.00
2012-5-19,90.7,71.9,54.9,53.6,48.8,41.6,92,50,20,29.98,29.89,6,2,10,0.00
2012-5-20,91.6,77.1,64.6,68.0,56.6,51.4,100,53,29,29.98,29.89,8,3,14,0.04
2012-5-21,68.4,60.5,54.5,66.9,54.9,42.6,100,84,44,29.98,29.89,7,3,13,0.28
2012-5-22,70.5,54.0,42.4,50.5,45.6,41.2,100,78,37,29.92,29.83,7,2,12,0.00
2012-5-24,82.6,78.5,75.9,49.7,47.0,43.6,36,33,27,29.65,29.59,8,5,10,0.00
2012-5-25,79.7,71.9,61.0,68.0,55.0,46.0,100,58,36,30.04,29.62,10,3,16,0.00
2012-5-26,76.3,67.0,59.7,67.3,60.4,56.6,100,82,54,30.10,29.95,7,2,10,0.08
2012-5-27,89.6,74.5,63.1,70.0,65.2,60.8,100,75,49,29.98,29.83,8,3,13,0.00
2012-5-28,91.9,80.3,66.9,68.2,61.5,52.9,100,57,31,29.83,29.62,10,4,14,0.00
2012-5-29,80.1,70.6,60.4,67.3,54.1,40.1,100,62,26,29.71,29.65,10,2,16,0.51
2012-5-30,69.8,59.8,50.2,59.3,50.7,40.6,100,74,46,29.80,29.65,9,2,14,0.00
2012-5-31,58.1,51.3,45.3,55.2,46.9,40.6,100,86,63,29.86,29.68,7,2,11,0.12
2012-6-1,52.2,49.2,45.5,52.2,49.2,45.5,100,100,100,29.68,29.48,8,4,13,0.47
2012-6-2,72.9,57.7,45.9,59.4,50.0,42.7,100,79,37,29.59,29.48,11,3,17,0.04
2012-6-3,78.1,66.1,55.2,57.2,52.0,45.5,100,65,34,29.71,29.53,8,2,13,0.00
2012-6-4,75.4,64.4,52.7,58.6,52.5,44.5,100,69,36,29.83,29.65,8,2,11,0.00
2012-6-5,60.8,57.6,54.7,55.6,54.3,53.6,100,89,78,29.89,29.83,5,2,9,0.00
2012-6-6,79.7,64.9,46.2,67.1,49.5,39.6,100,64,26,29.95,29.86,5,1,9,0.00
2012-6-7,80.4,66.4,49.3,62.2,50.1,40.7,100,63,29,29.98,29.92,7,1,13,0.00
2012-6-8,83.8,68.3,48.6,59.0,51.2,46.5,100,61,32,29.95,29.80,5,1,13,0.00
2012-6-9,87.3,75.6,59.7,62.2,52.3,42.1,100,49,22,29.86,29.77,6,2,16,0.00
2012-6-10,92.5,77.9,62.1,65.1,57.3,48.5,99,55,24,29.92,29.80,6,2,13,0.00
2012-6-11,85.8,77.3,68.2,75.2,65.9,56.9,100,69,53,29.83,29.68,7,3,14,0.00
2012-6-12,75.0,67.5,52.9,75.0,51.8,43.0,100,60,39,29.98,29.68,6,2,15,0.00
2012-6-13,78.3,61.5,45.0,54.0,43.5,35.9,100,59,26,30.07,29.98,6,2,12,0.00
2012-6-14,69.1,59.7,54.0,51.3,47.4,45.8,80,64,44,30.01,29.95,4,2,8,0.00
2012-6-15,92.7,76.0,60.3,61.4,51.5,43.7,92,48,20,30.04,29.95,7,2,10,0.00
2012-6-16,91.8,76.4,63.7,76.1,63.8,55.6,100,69,32,29.98,29.77,9,3,16,0.04
2012-6-17,82.2,72.2,64.4,74.8,62.3,43.8,100,77,34,29.80,29.71,9,2,15,0.08
2012-6-18,92.3,75.4,62.4,75.7,66.6,58.6,100,79,36,29.74,29.59,16,4,23,0.16
2012-6-19,94.3,84.8,77.5,71.9,66.6,59.1,75,55,34,29.89,29.71,10,4,18,0.00
2012-6-20,93.4,83.2,72.3,70.2,64.1,53.8,90,56,32,29.92,29.80,12,4,17,0.00
2012-6-21,81.0,74.1,61.7,75.4,66.3,59.6,100,78,54,29.86,29.74,10,3,14,0.04
2012-6-22,82.4,69.1,56.3,70.2,56.4,48.1,100,71,32,29.89,29.80,8,1,12,0.00
2012-6-23,84.9,69.9,52.7,68.4,54.5,45.6,100,66,27,29.95,29.86,7,1,10,0.00
2012-6-24,86.5,74.1,61.0,69.4,61.8,52.1,100,71,32,29.95,29.86,8,2,11,0.00
2012-6-25,77.4,67.2,52.5,67.1,49.3,41.0,100,59,31,29.98,29.89,9,4,16,0.00
2012-6-26,86.7,67.4,48.7,65.5,49.3,40.3,100,60,22,29.95,29.86,7,1,9,0.00
2012-6-27,91.8,73.0,53.1,64.8,53.0,41.3,100,60,20,29.86,29.71,9,2,13,0.00
2012-6-28,94.6,82.2,68.0,76.9,66.2,55.0,100,60,46,29.74,29.62,7,2,11,0.00
2012-6-29,90.0,76.6,63.9,75.0,61.0,44.6,100,67,26,29.83,29.68,8,1,14,0.00
2012-6-30,88.0,76.1,65.5,75.6,66.6,57.2,100,77,36,29.77,29.65,9,2,13,0.00
2012-7-1,91.6,76.8,63.1,75.0,63.6,52.8,100,70,29,29.89,29.74,7,1,10,0.00
2012-7-2,98.1,79.7,61.0,75.9,62.5,45.7,100,66,19,29.89,29.83,8,1,10,0.00
2012-7-3,94.5,83.6,75.4,79.7,72.7,62.0,100,74,36,29.83,29.71,8,2,11,0.00
2012-7-4,98.6,87.1,73.8,81.1,74.1,63.9,100,70,34,29.80,29.71,8,2,12,0.00
2012-7-5,100.2,87.2,75.2,79.9,69.1,57.6,100,61,26,29.83,29.74,14,2,22,0.00
2012-7-6,103.1,87.9,71.4,80.9,70.1,60.3,100,64,26,29.89,29.77,7,1,10,0.00
2012-7-7,95.9,85.5,77.2,81.5,74.4,68.0,100,73,44,29.92,29.80,9,2,13,0.00
2012-7-8,86.5,77.3,69.3,68.6,58.1,47.6,95,56,27,29.98,29.89,10,4,15,0.00
2012-7-9,88.9,78.2,63.0,73.9,57.8,50.8,100,54,31,29.95,29.89,8,2,11,0.00
2012-7-10,87.1,78.0,59.9,64.7,52.4,45.3,100,44,27,30.01,29.92,8,2,10,0.00
2012-7-11,68.5,64.6,62.4,64.4,61.5,57.8,100,90,73,30.04,30.01,3,0,4,0.00
2012-7-14,81.1,77.3,75.4,71.4,67.2,61.4,87,72,51,29.92,29.89,3,1,6,0.00
2012-7-15,88.7,78.4,69.3,78.1,70.2,63.2,100,79,49,29.95,29.86,6,2,13,0.00
2012-7-16,96.1,80.8,65.8,78.8,66.4,58.7,100,68,31,29.92,29.74,7,2,17,0.00
2012-7-17,81.3,81.0,80.2,71.7,70.5,69.2,75,70,66,29.74,29.74,4,3,7,0.00
2012-7-25,86.5,85.2,84.4,83.3,81.6,78.1,95,89,77,29.53,29.48,8,5,11,0.00
2012-7-26,87.1,77.5,69.6,79.3,73.2,65.9,100,88,54,29.68,29.48,8,2,13,0.28
2012-7-27,84.9,70.9,65.1,79.5,70.1,64.5,100,98,54,29.86,29.65,8,2,13,0.16
2012-7-28,84.4,71.4,60.4,68.0,59.2,49.4,100,71,32,30.04,29.86,9,2,11,0.00
2012-7-29,88.7,71.6,55.6,69.4,58.8,48.3,100,71,32,30.01,29.89,7,1,10,0.00
2012-7-30,91.8,76.9,60.4,71.4,61.9,52.9,100,67,31,29.92,29.77,8,2,10,0.00
2012-7-31,84.6,74.6,63.7,78.6,67.5,61.2,100,81,46,29.89,29.74,14,3,21,0.79
2012-8-1,87.1,71.9,57.4,71.1,62.1,52.8,100,76,36,29.89,29.77,7,1,9,0.00
2012-8-2,89.1,76.5,66.4,77.9,70.3,63.2,100,83,46,29.80,29.74,8,1,9,0.00
2012-8-3,99.3,82.2,68.0,80.8,68.7,55.7,100,71,26,29.83,29.77,7,1,9,0.00
2012-8-4,92.8,80.2,69.1,80.8,72.0,64.6,100,80,43,29.86,29.68,8,2,11,0.00
2012-8-5,79.0,73.1,58.3,73.9,64.6,52.1,100,78,44,30.04,29.74,11,3,15,0.00
2012-8-6,83.5,68.0,51.4,67.1,55.5,40.3,100,71,29,30.04,29.89,8,2,11,0.00
2012-8-7,89.4,75.4,60.8,73.0,59.9,48.6,100,65,27,29.89,29.83,8,2,11,0.00
2012-8-8,84.6,75.1,65.3,70.8,57.9,50.5,97,58,34,29.95,29.86,8,2,10,0.00
2012-8-9,70.7,66.2,60.6,69.8,64.3,54.4,100,94,56,29.89,29.71,8,2,11,0.28
2012-8-10,61.0,59.0,57.2,61.0,59.0,57.2,100,100,100,29.74,29.65,10,4,15,1.61
2012-8-11,77.7,67.1,59.5,64.2,59.7,54.0,100,80,48,29.86,29.68,11,3,17,0.00
2012-8-12,79.3,65.8,52.0,70.7,58.6,50.5,100,81,39,29.89,29.83,6,1,10,0.00
2012-8-13,69.3,65.1,61.5,69.1,64.9,61.5,100,99,85,29.86,29.80,4,0,8,0.00
2012-8-14,81.1,67.9,57.9,71.1,63.0,57.9,100,87,51,29.83,29.74,6,1,9,0.00
2012-8-15,85.5,70.3,57.7,73.8,61.7,52.7,100,79,34,29.86,29.80,7,1,10,0.00
2012-8-16,77.0,69.6,62.8,74.7,68.7,62.8,100,97,77,29.83,29.65,12,3,17,0.24
2012-8-17,72.3,64.1,51.8,63.9,57.2,50.7,100,81,51,29.89,29.74,8,2,15,0.00
2012-8-18,77.2,61.5,46.2,65.8,52.4,46.2,100,77,37,29.86,29.83,6,1,9,0.00
2012-8-19,78.3,63.4,50.4,68.4,56.2,48.7,100,81,39,29.83,29.80,8,0,10,0.04
2012-8-20,80.1,64.8,51.1,67.3,53.0,45.9,100,72,34,29.89,29.80,5,1,8,0.00
2012-8-21,79.3,64.1,48.7,71.6,54.2,47.5,100,76,36,29.98,29.89,7,1,11,0.00
2012-8-22,84.9,66.2,50.5,64.4,54.2,49.2,100,72,32,30.01,29.92,7,1,10,0.00
2012-8-23,89.6,72.4,56.8,70.9,58.7,51.4,100,70,31,30.01,29.95,8,2,15,0.00
2012-8-24,93.4,77.2,65.1,69.6,61.3,52.8,100,65,27,29.98,29.92,7,2,10,0.00
2012-8-25,93.2,78.3,64.9,71.6,62.9,49.3,100,67,24,29.98,29.92,8,1,13,0.00
2012-8-26,89.6,75.0,67.8,75.6,68.6,58.5,100,84,37,29.98,29.92,8,1,13,0.08
2012-8-27,86.4,75.1,63.9,81.1,65.2,50.1,100,77,32,29.95,29.89,9,2,12,0.16
2012-8-28,80.8,68.1,55.9,69.1,58.8,52.1,100,76,39,30.04,29.92,8,2,10,0.00
2012-8-29,86.5,68.7,53.1,69.3,57.4,50.6,100,75,32,30.01,29.92,6,1,9,0.00
2012-8-30,87.6,71.5,55.9,66.6,58.0,49.0,100,69,31,29.95,29.86,9,3,13,0.00
2012-8-31,88.3,78.0,69.6,74.1,65.4,55.6,100,67,43,29.98,29.86,8,3,15,0.00
2012-9-1,82.8,73.4,66.0,70.5,57.4,51.2,100,58,43,30.01,29.95,7,2,10,0.00
2012-9-2,88.2,74.9,66.7,74.6,66.3,56.2,100,78,39,29.95,29.83,10,3,13,0.00
2012-9-3,93.6,77.1,63.5,75.7,68.6,63.1,100,79,37,29.89,29.77,6,1,8,0.00
2012-9-4,90.0,75.8,68.5,79.0,71.7,65.9,100,89,49,29.83,29.74,6,1,8,0.35
2012-9-5,86.5,73.8,66.0,75.2,69.4,57.5,100,88,44,29.80,29.65,7,1,11,0.00
2012-9-6,85.8,72.5,61.5,73.2,64.5,53.7,100,80,36,29.86,29.71,6,1,10,0.00
2012-9-7,77.9,64.3,57.6,70.5,61.1,57.1,100,91,51,29.83,29.65,11,1,19,0.04
2012-9-8,70.0,60.2,52.7,63.8,54.6,46.5,100,84,46,29.68,29.59,8,2,13,0.04
2012-9-9,72.5,61.9,50.7,62.6,51.1,39.3,100,73,32,29.98,29.68,10,2,13,0.00
2012-9-10,77.7,60.0,44.8,59.5,50.6,44.8,100,77,36,30.07,29.98,7,1,11,0.00
2012-9-11,82.2,67.0,53.1,64.2,55.6,49.2,100,72,37,30.04,29.98,10,3,15,0.00
2012-9-12,85.5,71.1,58.6,65.5,58.5,51.3,100,70,32,30.07,29.98,9,2,14,0.00
2012-9-13,76.5,66.7,54.9,68.5,60.6,54.9,100,82,56,30.15,30.04,8,3,13,0.08
2012-9-14,73.0,60.0,46.4,64.0,50.1,42.8,100,76,37,30.15,30.10,8,1,13,0.04
2012-9-15,80.1,59.0,42.1,61.0,45.1,37.2,100,69,26,30.13,30.01,7,1,8,0.00
2012-9-16,79.0,64.6,50.4,62.0,51.2,43.2,100,69,31,30.01,29.89,7,1,10,0.00
2012-9-17,77.9,64.8,53.2,65.8,57.7,51.9,100,81,43,29.89,29.59,9,2,13,0.04
2012-9-18,61.3,54.5,44.8,61.3,47.9,32.8,100,81,37,29.83,29.56,11,3,20,0.04
2012-9-19,67.6,54.6,38.3,50.6,40.9,37.2,100,67,34,29.86,29.68,12,4,20,0.00
2012-9-20,68.9,60.5,50.5,60.6,48.2,38.6,100,68,37,29.74,29.62,10,3,15,0.04
2012-9-21,65.5,53.4,45.5,57.4,50.2,45.5,100,91,53,29.77,29.62,10,2,17,0.24
2012-9-22,50.7,49.6,48.4,50.7,49.6,48.2,100,100,100,29.62,29.53,6,1,8,0.08
2012-9-23,52.2,47.7,43.3,45.7,42.4,39.0,100,83,61,30.01,29.98,5,1,8,0.00
2012-9-24,64.4,53.2,39.7,47.1,40.3,35.3,100,68,36,30.01,29.71,13,4,25,0.04
2012-9-25,74.5,61.1,48.4,60.6,52.4,38.8,100,75,44,29.74,29.65,8,3,12,0.00
2012-9-26,71.1,60.2,49.6,59.7,51.6,42.3,100,78,37,30.01,29.71,9,2,11,0.00
2012-9-27,68.5,57.1,45.5,52.3,49.0,43.4,100,77,43,30.07,29.98,8,2,12,0.00
2012-9-28,70.3,58.2,46.2,56.6,48.5,38.8,100,75,37,30.01,29.95,8,1,10,0.00
2012-9-29,76.5,56.7,40.8,62.2,46.7,40.4,100,76,31,29.95,29.80,8,1,11,0.00
2012-9-30,70.9,55.5,44.6,54.5,46.0,39.1,100,76,37,29.83,29.77,10,2,15,0.00
2012-10-1,69.8,53.2,37.8,61.9,44.9,37.8,100,79,39,29.80,29.68,6,0,8,0.00
2012-10-2,73.8,60.4,45.7,58.1,48.4,40.6,100,70,36,29.80,29.65,8,1,11,0.00
2012-10-3,63.3,59.4,56.7,63.1,58.6,52.5,100,97,71,29.86,29.77,6,1,8,0.08
2012-10-4,77.7,64.6,57.4,67.1,59.2,46.8,100,86,36,29.92,29.83,12,4,18,0.32
2012-10-5,57.6,51.3,44.8,57.4,45.4,36.9,100,81,61,29.92,29.80,7,2,11,0.00
2012-10-6,47.7,45.1,42.1,45.3,38.8,34.1,100,79,66,29.92,29.74,8,2,15,0.00
2012-10-7,50.4,42.4,32.2,46.8,39.4,32.2,100,90,54,29.95,29.89,7,1,9,0.00
2012-10-8,57.9,45.4,31.5,37.8,32.3,25.7,100,66,32,29.95,29.83,12,4,15,0.00
2012-10-9,63.9,52.7,42.8,53.1,39.1,30.9,100,62,41,29.83,29.59,13,5,20,0.08
2012-10-10,46.0,42.8,37.6,45.3,37.0,27.9,100,82,53,29.95,29.65,10,2,13,0.32
2012-10-11,37.6,36.8,35.1,37.4,36.7,35.1,100,100,99,29.95,29.89,2,0,3,0.00
2012-10-12,51.4,39.6,32.7,34.1,29.5,22.4,100,72,36,30.33,30.15,4,0,5,0.00
2012-10-13,63.9,46.0,31.5,63.9,45.1,31.5,100,97,82,30.15,29.65,8,3,13,0.79
2012-10-14,70.7,62.8,50.0,68.5,62.3,50.0,100,98,75,29.65,29.27,12,5,22,0.98
2012-10-15,50.0,46.6,36.9,50.0,46.1,36.9,100,98,82,29.80,29.45,12,2,16,0.00
2012-10-16,63.5,47.2,31.6,51.0,41.3,31.6,100,83,48,29.77,29.45,10,2,13,0.00
2012-10-17,72.0,62.4,56.8,63.1,54.6,46.4,100,78,44,29.45,29.30,14,6,20,0.08
2012-10-18,60.3,52.5,45.0,60.3,49.9,40.0,100,92,61,29.42,29.12,12,5,19,0.51
2012-10-19,52.0,46.7,43.9,50.9,46.5,43.9,100,99,88,29.42,29.33,8,2,13,0.12
2012-10-20,56.3,46.4,38.5,55.2,46.1,38.5,100,99,83,29.74,29.39,5,0,10,0.04
2012-10-21,64.6,48.1,35.6,58.1,42.9,35.6,100,86,43,29.92,29.71,8,1,10,0.00
2012-10-22,70.7,58.1,47.8,64.0,56.4,47.8,100,95,68,29.89,29.74,7,1,8,0.91
2012-10-23,64.8,61.1,58.8,64.8,61.1,58.8,100,100,100,29.83,29.71,5,1,8,0.35
2012-10-24,79.2,67.0,57.9,70.2,65.0,57.7,100,94,68,29.83,29.77,8,2,11,0.00
2012-10-25,77.9,69.0,49.3,67.1,63.1,49.1,100,83,54,29.80,29.65,12,6,22,0.04
2012-10-26,50.7,44.8,38.8,49.1,37.7,29.3,100,78,46,30.13,29.80,9,4,15,0.24
2012-10-27,50.9,40.1,29.7,41.2,33.5,29.0,100,81,46,30.13,30.01,10,3,13,0.00
2012-10-28,49.8,40.4,29.5,36.7,31.4,25.0,100,74,46,30.10,30.01,10,4,15,0.00
2012-10-29,47.7,40.2,33.4,34.5,29.8,24.6,100,70,46,30.07,29.74,14,6,20,0.00
2012-10-30,41.0,39.7,38.7,40.8,35.9,23.4,100,88,49,29.74,29.48,14,7,26,0.12
2012-10-31,43.2,40.1,37.8,42.8,40.0,37.8,100,100,88,29.62,29.45,9,4,15,0.04
2012-11-1,48.2,41.6,37.6,41.9,35.3,29.2,100,80,51,29.65,29.56,9,3,13,0.00
2012-11-2,45.7,39.3,30.0,37.9,35.1,30.0,100,86,65,29.95,29.65,10,3,14,0.00
2012-11-3,44.8,36.8,28.0,36.2,32.9,28.0,100,87,65,30.04,29.95,6,1,10,0.00
2012-11-4,43.3,35.3,25.2,35.6,29.6,25.2,100,81,53,30.04,29.98,6,1,8,0.00
2012-11-5,40.6,31.9,23.0,33.3,28.7,23.0,100,89,70,30.04,29.95,6,1,9,0.00
2012-11-6,46.6,36.9,25.9,36.7,31.7,25.9,100,83,58,29.95,29.74,7,2,10,0.00
2012-11-7,50.2,39.0,27.9,36.3,31.8,27.8,100,78,46,29.98,29.77,6,1,9,0.00
2012-11-8,44.6,35.9,24.4,43.7,35.1,24.4,100,97,80,30.01,29.92,5,1,9,0.00
2012-11-9,56.7,47.1,35.1,45.7,41.5,35.1,100,82,60,29.95,29.86,7,2,10,0.00
2012-11-10,65.5,57.1,49.6,57.1,50.1,44.9,100,79,56,29.89,29.71,10,3,15,0.00
2012-11-11,70.5,63.1,53.8,59.4,51.4,46.8,100,67,54,29.83,29.68,14,7,23,0.00
2012-11-12,53.8,38.7,31.5,53.8,35.9,23.5,100,90,70,30.04,29.71,9,3,14,0.28
2012-11-13,40.5,31.5,24.1,28.8,23.9,21.7,100,74,53,30.36,30.04,6,1,9,0.00
2012-11-14,45.3,32.1,25.2,30.7,26.7,24.2,100,83,48,30.36,30.18,7,2,11,0.00
2012-11-15,46.9,33.1,23.7,36.9,29.4,23.7,100,88,53,30.21,30.13,6,1,8,0.00
2012-11-16,56.7,38.2,25.2,42.5,34.0,25.2,100,87,49,30.27,30.15,6,0,9,0.00
2012-11-17,56.5,38.6,26.8,44.8,31.7,26.6,100,80,43,30.36,30.27,7,1,9,0.00
2012-11-18,60.1,41.1,29.1,43.5,33.1,28.8,100,78,32,30.30,30.18,7,1,11,0.00
2012-11-19,57.2,44.1,32.4,42.0,36.5,32.4,100,77,46,30.18,29.95,5,0,6,0.00
2012-11-20,56.7,47.2,40.6,49.8,44.0,38.1,100,89,61,29.98,29.89,5,0,8,0.00
2012-11-21,57.6,47.3,39.6,53.6,46.6,39.6,100,97,77,30.04,29.89,7,1,8,0.00
2012-11-22,63.3,53.2,45.5,54.5,48.0,41.4,100,85,48,29.92,29.56,12,6,17,0.12
2012-11-23,56.3,38.0,31.1,55.6,33.1,23.9,100,83,70,29.89,29.53,12,5,17,0.00
2012-11-24,32.2,30.8,29.3,26.7,24.0,21.6,88,76,68,29.98,29.83,10,3,16,0.00
2012-11-25,37.4,32.2,28.4,33.3,29.0,22.5,100,88,77,29.83,29.65,8,3,13,0.00
2012-11-26,33.3,31.7,29.1,32.7,24.6,19.5,100,75,60,30.13,29.83,8,2,11,0.00
2012-11-27,29.1,27.5,24.4,20.8,18.9,16.5,71,70,68,30.13,30.10,7,3,10,0.00
2012-12-16,48.9,44.2,39.6,48.9,44.2,39.6,100,100,100,29.52,29.40,6,2,13,0.04
2012-12-17,42.4,38.0,30.4,40.2,36.9,30.4,100,96,77,29.55,29.49,6,1,8,0.00
2012-12-18,40.5,33.4,25.9,38.5,32.3,25.9,100,96,77,29.60,29.52,7,1,10,0.04
2012-12-19,40.3,35.3,30.4,40.3,35.3,30.4,100,100,99,29.90,29.57,4,0,8,0.00
2012-12-20,46.4,39.5,33.6,46.4,39.4,33.6,100,100,90,29.81,28.93,9,4,17,0.79
2012-12-21,36.9,34.2,31.1,36.9,31.2,26.2,100,89,75,29.84,28.98,12,5,20,0.04
2012-12-22,37.4,30.4,25.5,29.8,26.6,23.9,100,86,68,29.93,29.78,9,3,16,0.00
2012-12-23,32.0,26.3,18.7,30.9,24.1,18.7,100,92,77,29.87,29.69,8,2,10,0.00
2012-12-24,31.1,25.6,21.0,26.7,24.1,21.0,100,94,82,29.87,29.66,8,2,11,0.00
2012-12-25,31.3,24.7,16.3,26.8,20.7,16.3,100,86,68,30.14,29.87,7,2,10,0.00
2012-12-26,28.9,25.9,20.7,28.4,23.7,17.6,100,92,73,30.08,29.78,12,6,20,0.00
2012-12-27,32.2,24.3,17.4,29.1,22.9,17.4,100,95,70,29.96,29.84,8,2,10,0.00
2012-12-28,31.3,26.6,19.4,31.1,26.6,19.4,100,100,100,29.96,29.72,4,1,6,0.00
2012-12-29,32.4,26.8,19.4,32.4,26.7,19.4,100,100,90,29.90,29.66,6,1,8,0.00
2012-12-30,28.6,26.4,22.5,28.6,26.2,21.9,100,99,88,30.08,29.90,8,3,11,0.00
2012-12-31,36.7,30.2,25.5,34.7,27.7,17.6,100,91,71,29.93,29.72,10,4,15,0.00
2013-1-1,25.7,22.9,18.1,22.8,17.0,12.4,99,78,65,29.99,29.84,6,2,10,0.00